Preview of NWS' New Version of Forecast
This preview is not operational and should not be used for support decisions.

Regional Weather Roundup (RWR)

Issued by National Weather Service (NWS)

                            
000
ASUS43 KDTX 180410
RWRMI 
MICHIGAN HOURLY REGIONAL WEATHER ROUNDUP
NATIONAL WEATHER SERVICE DETROIT/PONTIAC MI
1200 AM EDT TUE JUN 18 2019

NOTE: "FAIR" INDICATES FEW OR NO CLOUDS BELOW 12,000 FEET WITH NO
SIGNIFICANT WEATHER AND/OR OBSTRUCTION TO VISIBILITY.

MIZ047>049-052>055-059>063-066>070-074>076-081>083-180500-
SOUTHEAST LOWER MICHIGAN
  
CITY           SKY/WX    TMP DP  RH WIND       PRES   REMARKS
ADRIAN         CLOUDY    63  59  87 E3        29.99S                  
ALMA           CLOUDY    61  58  92 CALM      30.01S                  
ANN ARBOR      FAIR      61  59  93 CALM      29.99S                  
BAD AXE        FAIR      51  49  92 S5        30.00F                  
CARO           FAIR      55  53  93 CALM      30.00S                  
DETROIT CITY   FAIR      63  54  72 NE3       29.99S                  
DETROIT        CLOUDY    64  55  72 CALM      29.99S                  
FLINT          CLOUDY    65  57  75 CALM      29.99S                  
GROSSE ILE     FAIR      61  59  95 CALM      29.98R                  
HILLSDALE      CLOUDY    62  60  94 SE3       29.99S                  
HOWELL         MOCLDY    63  58  83 CALM      29.99F                  

CITY           SKY/WX    TMP DP  RH WIND       PRES   REMARKS
JACKSON        CLOUDY    66  63  90 N5        29.99S                  
LAMBERTVILLE   CLOUDY    63  62  96 CALM      29.98S                  
LANSING        CLOUDY    64  60  87 CALM      30.00S                  
LAPEER         FAIR      62  56  81 CALM      30.00S                  
MASON          CLOUDY    65  61  88 CALM      30.00S                  
MONROE         CLOUDY    64  64  97 CALM      29.99R                  
MT. CLEMENS    MOCLDY    60  56  86 N3        29.99S                  
PONTIAC        FAIR      63  58  83 E5        29.98S                  
PORT HOPE        N/A     50  48  93 CALM      30.00S                  
PORT HURON     CLOUDY    59  48  67 CALM      30.00F                  
TRI CITIES     FAIR      59  58  96 N5        30.01S                  
MIDLAND        FAIR      57  54  88 CALM      30.00F                  
TROY           CLOUDY    65  49  57 E5        30.02R                  
SAGINAW HB     MOCLDY    61  57  88 CALM      29.99F                  
$$
MIZ043>046-050>051-056>058-064>065-071>073-077>080-180500-
SOUTHWEST LOWER MICHIGAN
  
CITY           SKY/WX    TMP DP  RH WIND       PRES   REMARKS
BATTLE CREEK   CLOUDY    65  62  90 CALM      30.00R                  
BENTON HARBOR  CLOUDY    59  55  87 CALM      29.99S                  
BIG RAPIDS     MOCLDY    62  59  90 CALM      30.00S                  
COLDWATER      FAIR      64  64 100 CALM      29.99S                  
FREMONT        FAIR      61  55  78 CALM      30.00S                  
HOLLAND        FAIR      61  55  81 N3        30.00S                  
GRAND RAPIDS   CLOUDY    64  59  83 N3        30.00S                  
IONIA          CLOUDY    63  60  90 CALM      29.99S                  
KALAMAZOO      CLOUDY    66  61  84 CALM      29.99S                  
LUDINGTON      MOCLDY    55  50  83 CALM      30.01S                  
MARSHALL       CLOUDY    65  65 100 CALM      29.99S                  
MOUNT PLEASANT FAIR      58  57  96 CALM      30.00S                  
MUSKEGON       CLOUDY    64  55  72 N3        30.00S                  
SOUTH HAVEN    FAIR      57  55  94 CALM      29.99S                  
$$
MIZ016>042-180500-
NORTHERN LOWER MICHIGAN
  
CITY           SKY/WX    TMP DP  RH WIND       PRES   REMARKS
ALPENA         FAIR      50  48  93 CALM      30.01S                  
BEAVER ISLAND  FAIR      47  46  93 CALM      30.00F                  
BELLAIRE       FAIR      54  51  90 CALM      30.00S                  
CADILLAC       FAIR      55  53  94 CALM      29.99F                  
CHARLEVOIX     FAIR      55  50  84 CALM      30.03S                  
FRANKFORT      FAIR      55  48  80 CALM      30.00S                  
GAYLORD        FAIR      59  46  62 SE6       30.01S                  
GRAYLING       FAIR      58  54  87 E7        30.00R                  
HARBOR SPRINGS FAIR      56  52  85 NE3       30.00S                  
HOUGHTON LAKE  MOCLDY    58  51  78 E5        30.02S                  
MANISTEE       FAIR      51  49  92 W3        30.01R                  
OSCODA         FAIR      48  47  95 CALM      30.01S                  
PELLSTON       FAIR      51  49  92 CALM      30.01S                  
ROGERS CITY    FAIR      57  48  73 CALM      30.02R                  
TRAVERSE CITY  FAIR      56  52  86 CALM      29.99R                  
$$
MIZ007>008-015-180500-
EASTERN UPPER MICHIGAN
  
CITY           SKY/WX    TMP DP  RH WIND       PRES   REMARKS
KINROSS        FAIR      55  48  77 CALM      30.01S                  
MACKINAC ISLAN FAIR      53  47  82 CALM      30.01R                  
NEWBERRY       FAIR      55  51  85 SE3       29.99S                  
S. S. MARIE    FAIR      54  47  77 S3        30.00R                  
MUNISING         N/A     58  49  72 S5        29.97S                  
$$
MIZ004>006-011>014-085-180500-
CENTRAL UPPER MICHIGAN
  
CITY           SKY/WX    TMP DP  RH WIND       PRES   REMARKS
MANISTIQUE     FAIR      51  48  89 CALM      29.98F                  
ESCANABA       FAIR      54  51  90 CALM      29.99S                  
MENOMINEE      FAIR      58  53  84 CALM      30.00R                  
SAWYER-GWINN   CLOUDY    61  48  62 S6        29.97F                  
$$
MIZ001>003-009>011-084-180500-
WESTERN UPPER MICHIGAN
  
CITY           SKY/WX    TMP DP  RH WIND       PRES   REMARKS
IRON MOUNTAIN  CLOUDY    63  51  65 SE5       29.96F                  
HOUGHTON       CLOUDY    53  45  74 E12       29.95F                  
COPPER HARBOR    N/A     50  45  83 NW9G22    30.01R                  
IRONWOOD       CLOUDY    53  51  93 CALM      29.97F                  
$$

ABBREVIATIONS USED IN REMARKS
   TC - TEMPERATURE IN CELSIUS
  WCI - WIND CHILL INDEX
   HX - HEAT INDEX
  VSB - VISIBILITY